Location: Colonia Mina de C?rbuni
(46.1667°N, 22.7167°E)
Time: 15:18:42
(UTC+00:00)

Vanguard 1 Rocket - Pass Details

Date: 22 April 2024
Orbit: 650 x 4220 km, 34.3° (Epoch: 22 May)

Event Time Altitude Azimuth Distance (km) Brightness Sun altitude
Rises 21:23:08 0° 262° (W) 4,020 10.8 -29.5°
Reaches altitude 10° 21:26:01 10° 248° (WSW) 3,416 10.3 -29.6°
Enters shadow 21:28:59 20° 228° (SW) 3,101 9.8 -29.8°
